Regional Weather Roundup
Issued by NWS Sioux Falls, SD

Home | Current Version | Previous Version | Graphics & Text | Print | Product List | Glossary On
Versions: 1 2 3 4 5 6 7 8 9 10 11 12 13 14 15 16 17 18 19 20 21 22 23 24 25 26 27 28 29 30 31 32 33 34 35 36 37 38 39 40 41 42 43 44 45 46 47 48 49 50
000
ASUS43 KFSD 280010
RWRFSD

WEATHER ROUNDUP FOR SE SOUTH DAKOTA/SW MINNESOTA/NW IOWA
NATIONAL WEATHER SERVICE SIOUX FALLS SD
700 PM CDT SAT AUG 27 2016

NOTE: "FAIR" INDICATES FEW OR NO CLOUDS BELOW 12,000 FEET WITH NO
SIGNIFICANT WEATHER AND OR OBSTRUCTIONS TO VISIBILITY.


SDZ038>040-050-052>070-280100-
SOUTHEAST SOUTH DAKOTA

CITY           SKY/WX    TMP DP  RH WIND       PRES   REMARKS
BROOKINGS      SUNNY     74  63  68 S8        29.98R
CHAMBERLAIN    SUNNY     84  62  46 SE5       29.90S
6HR MIN TEMP:  78; 6HR MAX TEMP:  87;

HURON          SUNNY     80  60  50 S8        29.92R
6HR MIN TEMP:  71; 6HR MAX TEMP:  81;

MADISON        FAIR      73  66  78 S7        29.99R
MITCHELL       PTSUNNY   79  62  56 SE8       29.94R
6HR MIN TEMP:  74; 6HR MAX TEMP:  83;

SIOUX FALLS    MOSUNNY   76  65  68 S7        29.98S
6HR MIN TEMP:  69; 6HR MAX TEMP:  77;

WINNER         FAIR      87  61  41 S8        29.90S
YANKTON        SUNNY     81  63  54 SE9       29.95R
$$

MNZ071-072-080-081-089-090-097-098-280100-
SOUTHWEST MINNESOTA

CITY           SKY/WX    TMP DP  RH WIND       PRES   REMARKS
FAIRMONT       SUNNY     73  64  73 W5        30.01S
JACKSON          N/A     73  61  64 SW5       30.02S
LUVERNE        SUNNY     72  61  68 S6        30.00S
MARSHALL       SUNNY     74  63  68 S5        29.99R
6HR MIN TEMP:  65; 6HR MAX TEMP:  75;

MONTEVIDEO     MOSUNNY   72  63  73 S3        30.01R
REDWOOD FALLS  SUNNY     72  61  68 SW6       29.99R
TRACY          SUNNY     73  64  72 SW6       30.00R
WINDOM         SUNNY     73  63  68 SW6       30.01R
WORTHINGTON    SUNNY     72  63  73 S6        30.02R
$$

IAZ001>003-012>014-020>022-031-032-NEZ013-014-SDZ071-280100-
NORTHWEST IOWA

CITY           SKY/WX    TMP DP  RH WIND       PRES   REMARKS
CHEROKEE       SUNNY     76  66  71 CALM      30.00S
DENISON        SUNNY     77  66  69 S5        29.98S
ESTHERVILLE    SUNNY     72  66  81 SW6       30.01R
LE MARS        SUNNY     77  66  69 S6        30.00R
ORANGE CITY    SUNNY     73  66  78 S3        30.00S
SHELDON        SUNNY     73  66  78 S6        29.99S
SIOUX CITY     SUNNY     78  68  71 S6        29.98R
6HR MIN TEMP:  73; 6HR MAX TEMP:  81;

SPENCER        SUNNY     73  64  73 SW6       30.01S
6HR MIN TEMP:  66; 6HR MAX TEMP:  76;

STORM LAKE     SUNNY     75  66  73 SW3       30.01S
$$

ABBREVIATIONS USED IN REMARKS
   TC - TEMPERATURE IN CELSIUS
  WCI - WIND CHILL INDEX
   HX - HEAT INDEX
  VSB - VISIBILITY





USA.gov is the U.S. government's official web portal to all federal, state and local government web resources and services.